CAPE
493 570 582 584 536 509 707 737 586 631 561 327 225 376 536 351 37 0 0 0 0 0 0 0 0 0 0 0 0 0 0 0 0 0 0 0 0 0 0 0 0 0 1
630 743 721 728 725 704 890 914 783 830 712 393 352 305 460 335 10 0 0 0 0 0 0 0 0 0 0 0 0 0 0 0 0 0 0 0 0 0 0 0 0 0 0
793 828 968 1009 919 891 1047 1103 1013 946 841 629 546 441 385 278 33 0 0 0 0 0 0 0 0 0 0 0 0 0 0 0 0 0 0 0 0 0 0 0 0 0 0
1067 1065 1066 1104 1282 1204 1184 1181 1133 1043 907 824 679 562 387 199 9 0 0 0 0 0 0 0 0 0 0 0 0 0 0 0 0 0 0 0 0 0 0 0 0 0 0
949 1148 1170 1242 1243 1401 1328 1201 1065 1060 979 825 742 562 342 145 9 0 0 0 0 0 0 0 0 0 0 0 0 0 0 0 0 0 0 0 0 0 0 0 0 0 0
975 871 105 547 1285 1302 1455 1357 1176 1076 1013 875 756 563 385 166 0 0 0 0 0 0 0 0 0 0 0 0 0 0 0 0 0 0 0 0 0 0 0 0 0 0 0
1236 1210 958 989 1430 1400 1355 1476 1390 1199 997 875 717 502 391 159 0 0 0 0 0 0 0 0 0 0 0 0 0 0 0 0 0 0 0 0 0 0 0 0 0 0 0
1955 1672 1457 1518 1583 1480 787 733 768 1170 1045 830 685 467 349 72 5 0 0 0 0 0 0 0 0 0 0 0 0 0 0 0 0 0 0 0 0 0 0 0 0 0 0
2131 2084 1775 1695 1789 1166 579 0 497 921 860 659 521 410 272 73 7 0 0 0 0 0 0 0 0 0 0 0 0 0 0 0 0 0 0 0 0 0 0 0 0 0 0
2323 2191 2060 1956 1993 1907 1202 849 891 839 620 321 126 191 123 60 1 0 0 0 0 0 0 0 0 0 0 0 0 0 0 0 0 0 0 0 0 0 0 0 0 0 0
1901 2464 2393 2280 2079 2133 2049 1763 1333 603 17 17 1 2 7 8 0 0 0 0 0 0 0 0 0 0 0 0 0 0 0 0 0 0 0 0 0 0 0 0 0 0 0
987 1308 2125 2150 2171 1822 1674 1088 747 551 217 82 4 0 32 2 2 0 0 0 0 0 0 0 0 0 0 0 0 0 0 0 0 0 0 0 0 0 0 0 0 0 0
1048 883 1003 1599 1667 1655 1491 1129 662 177 44 0 0 0 0 0 0 0 0 0 0 0 0 0 0 0 0 0 0 0 0 0 0 0 0 0 0 0 0 0 0 0 0
1104 808 854 989 1288 1160 931 255 51 22 24 24 4 0 3 2 0 0 0 0 0 0 0 0 0 0 0 0 0 0 0 0 0 0 0 0 0 0 0 0 0 0 0
969 941 948 917 986 952 790 499 330 118 41 44 24 38 0 0 0 0 2 0 0 0 0 0 0 0 0 0 0 0 0 0 0 0 0 0 0 0 0 0 0 0 0
816 742 847 971 891 854 639 306 29 45 11 14 51 64 1 0 0 0 0 0 0 0 0 0 0 0 0 0 0 0 0 0 0 0 0 0 0 0 0 0 0 0 13
573 429 621 756 692 653 552 358 324 0 0 0 0 0 0 0 0 0 0 0 0 0 0 0 0 0 0 0 0 0 0 0 0 0 0 0 0 0 0 0 0 3 18
578 421 480 540 770 588 501 301 60 43 37 0 0 0 0 0 0 0 0 0 0 0 0 0 0 0 0 0 0 0 0 0 0 0 0 0 0 1 0 2 9 12 0
463 225 93 262 539 573 436 246 73 1 2 1 0 0 0 0 0 0 0 0 0 0 0 0 0 0 0 0 0 0 0 0 0 0 0 0 3 8 1 2 10 2 6
445 246 268 173 444 476 294 121 62 24 2 1 1 0 0 0 0 0 0 0 0 0 0 0 0 0 0 0 0 0 0 0 0 0 0 3 4 6 1 2 13 34 12
245 274 251 205 183 468 488 203 25 16 2 1 0 2 0 0 0 0 0 0 0 0 0 0 0 0 0 0 0 0 0 9 0 0 8 0 0 7 3 6 21 22 13
309 244 288 302 308 463 509 256 31 1 1 2 3 2 0 0 0 0 0 0 0 0 0 0 0 0 0 0 0 0 1 18 13 1 1 0 1 5 6 5 14 5 0
152 327 536 643 531 467 320 334 77 2 1 3 1 0 0 0 0 0 0 0 0 0 0 0 0 0 0 0 0 0 0 0 0 1 0 0 0 7 0 1 0 0 0
0 21 180 586 601 550 524 282 200 12 1 2 2 0 0 0 0 0 0 0 0 0 0 0 0 0 0 0 0 0 0 0 0 0 0 0 10 0 0 0 0 0 0
0 0 143 240 384 507 296 328 199 13 0 1 2 0 0 0 0 0 0 0 0 0 0 0 0 0 0 0 0 0 0 0 0 0 0 0 1 0 0 0 0 0 0
0 0 1 285 268 331 195 78 3 3 1 2 0 0 0 0 0 0 0 0 0 0 0 0 0 0 0 0 0 0 3 0 0 0 0 0 0 0 0 0 0 0 0
CIN
-382 -359 -331 -319 -291 -265 -200 -171 -196 -176 -168 -211 -249 -191 -125 -150 -193 0 0 0 0 0 0 0 0 0 0 0 0 0 0 0 0 0 0 0 0 0 0 0 0 0 -6
-375 -355 -334 -305 -306 -284 -231 -202 -200 -173 -181 -230 -239 -238 -179 -197 -194 0 0 0 0 0 0 0 0 0 0 0 0 0 0 0 0 0 0 0 0 0 0 0 0 0 0
-387 -365 -319 -298 -317 -294 -240 -213 -207 -185 -199 -236 -240 -238 -245 -253 -327 0 0 0 0 0 0 0 0 0 0 0 0 0 0 0 0 0 0 0 0 0 0 0 0 0 0
-366 -359 -351 -347 -289 -280 -279 -242 -231 -213 -204 -229 -250 -250 -278 -316 -326 0 0 0 0 0 0 0 0 0 0 0 0 0 0 0 0 0 0 0 0 0 0 0 0 0 0
-428 -389 -314 -416 -324 -242 -239 -259 -286 -267 -254 -249 -250 -300 -339 -365 -285 0 0 0 0 0 0 0 0 0 0 0 0 0 0 0 0 0 0 0 0 0 0 0 0 0 0
-321 -327 -400 -489 -419 -323 -258 -260 -250 -260 -263 -300 -286 -300 -338 -392 0 0 0 0 0 0 0 0 0 0 0 0 0 0 0 0 0 0 0 0 0 0 0 0 0 0 0
-354 -358 -376 -401 -411 -355 -297 -283 -248 -267 -239 -284 -329 -336 -359 -416 0 0 0 0 0 0 0 0 0 0 0 0 0 0 0 0 0 0 0 0 0 0 0 0 0 0 0
-290 -309 -354 -336 -315 -347 -299 -392 -514 -318 -304 -286 -341 -361 -358 -513 -563 0 0 0 0 0 0 0 0 0 0 0 0 0 0 0 0 0 0 0 0 0 0 0 0 0 0
-302 -288 -263 -259 -251 -370 -345 0 -501 -425 -328 -326 -394 -398 -401 -554 -587 0 0 0 0 0 0 0 0 0 0 0 0 0 0 0 0 0 0 0 0 0 0 0 0 0 0
-219 -262 -198 -108 -111 -101 -249 -272 -319 -264 -230 -201 -298 -439 -467 -511 -187 0 0 0 0 0 0 0 0 0 0 0 0 0 0 0 0 0 0 0 0 0 0 0 0 0 0
-246 -187 -132 -78 -94 -79 -34 -52 -92 -129 -22 -221 0 0 -274 -362 0 0 0 0 0 0 0 0 0 0 0 0 0 0 0 0 0 0 0 0 0 0 0 0 0 0 0
-274 -254 -151 -116 -78 -93 -68 -122 -160 -197 -208 -264 -158 0 -25 0 0 0 0 0 0 0 0 0 0 0 0 0 0 0 0 0 0 0 0 0 0 0 0 0 0 0 0
-208 -240 -253 -143 -105 -81 -99 -127 -202 -424 -547 -52 0 0 0 0 0 0 0 0 0 0 0 0 0 0 0 0 0 0 0 0 0 0 0 0 0 0 0 0 0 0 0
-129 -194 -218 -179 -125 -140 -187 -368 -591 -610 -524 -490 -346 0 -7 0 0 0 0 0 0 0 0 0 0 0 0 0 0 0 0 0 0 0 0 0 0 0 0 0 0 0 0
-114 -130 -148 -156 -138 -158 -144 -222 -231 -383 -459 -492 -363 -404 0 0 0 0 0 0 0 0 0 0 0 0 0 0 0 0 0 0 0 0 0 0 0 0 0 0 0 0 0
-95 -92 -96 -109 -122 -144 -186 -287 -534 -465 -344 -485 -476 -344 0 0 0 0 0 0 0 0 0 0 0 0 0 0 0 0 0 0 0 0 0 0 0 0 0 -48 0 0 -66
-99 -136 -98 -91 -114 -131 -164 -210 -232 0 0 0 0 0 0 0 0 0 0 0 0 0 0 0 0 0 0 0 0 0 0 0 0 0 0 0 0 0 0 0 0 -111 -81
-87 -151 -108 -108 -57 -89 -119 -163 -271 -331 -349 0 0 0 0 0 0 0 0 0 0 0 0 0 0 0 0 0 0 0 0 0 0 0 0 0 0 -24 0 -54 -95 -86 -13
-128 -171 -224 -141 -97 -70 -99 -177 -264 0 0 0 0 0 0 0 0 0 0 0 0 0 0 0 0 0 0 0 0 0 0 0 0 0 0 0 -68 -109 -53 -53 -87 -37 -60
-99 -127 -136 -194 -102 -87 -113 -186 -253 -304 0 0 0 0 0 0 0 0 0 0 0 0 0 0 0 0 0 0 0 0 0 0 0 0 0 -104 -112 -144 -93 -108 -57 -59 -63
-105 -112 -153 -178 -164 -71 -80 -163 -284 -328 -96 0 0 0 0 0 0 0 0 0 0 0 0 0 0 0 0 0 0 0 0 -103 -4 -5 -123 -61 0 -95 -93 -108 -67 -65 -62
-74 -110 -130 -153 -136 -71 -59 -106 -233 0 0 0 0 0 0 0 0 0 0 0 0 0 0 0 0 0 0 0 0 0 -71 -72 -128 -76 -74 0 -19 -95 -110 -101 -83 -80 0
-86 -56 -52 -64 -70 -57 -83 -76 -176 -92 0 0 0 0 0 0 0 0 0 0 0 0 0 0 0 0 0 0 0 0 0 0 0 -72 0 0 0 -102 0 -15 -9 0 0
0 -194 -117 -46 -35 -44 -46 -82 -69 -90 0 0 0 0 0 0 0 0 0 0 0 0 0 0 0 0 0 0 0 0 0 0 0 0 0 0 -91 0 0 0 0 0 0
0 0 -167 -139 -71 -43 -74 -39 -12 -18 -3 0 0 0 0 0 0 0 0 0 0 0 0 0 0 0 0 0 0 0 0 0 0 0 0 0 -34 0 0 0 0 0 0
0 0 0 -94 -83 -42 -67 -50 -34 0 0 0 0 0 0 0 0 0 0 0 0 0 0 0 0 0 0 0 0 0 -213 0 0 0 0 0 0 0 0 0 0 0 0
Wind_Speed
21 21 20 18 18 22 25 25 21 17 17 16 13 9 6 2 2 4 6 7 8 10 13 14 13 11 10 10 11 11 12 12 10 13 12 12 13 14 17 19 20 18 14
19 20 20 17 15 19 22 22 16 17 15 17 13 9 7 3 1 3 5 7 7 9 10 11 12 11 9 9 10 10 11 10 11 8 9 10 12 14 16 18 20 19 14
3 11 19 18 14 18 19 18 17 15 16 15 13 13 10 8 5 3 3 4 4 7 9 9 8 8 8 9 9 10 11 11 11 9 9 11 12 15 16 18 19 19 16
8 11 15 14 17 15 11 13 16 17 16 15 14 12 9 9 6 2 2 3 5 7 8 8 7 6 5 6 7 9 10 11 11 8 9 10 12 15 16 18 19 20 17
10 9 14 14 11 13 12 13 12 14 15 14 13 10 8 7 5 2 2 3 5 7 5 7 9 7 5 5 7 8 8 10 9 8 8 10 11 13 15 17 18 18 15
11 18 14 6 10 13 17 26 20 17 16 14 14 12 10 9 7 5 3 2 3 4 3 3 7 7 6 6 8 7 7 8 7 8 9 9 10 12 14 15 16 16 14
11 14 17 20 19 18 16 19 21 22 22 20 18 17 15 12 9 8 6 4 4 3 3 2 5 7 6 7 7 8 10 11 8 8 7 9 11 11 12 13 14 15 15
20 17 20 20 22 24 26 22 24 25 25 25 23 21 19 17 14 12 9 7 4 2 1 1 4 7 8 7 7 7 8 9 9 10 8 8 10 10 12 13 14 15 16
35 28 24 24 25 27 30 30 27 27 30 30 27 25 23 21 20 17 14 10 8 5 2 1 1 5 4 4 5 6 7 7 8 10 10 9 10 9 10 12 15 17 18
37 36 27 23 24 28 33 36 34 37 41 39 31 30 25 24 23 19 15 12 9 9 7 4 2 1 2 2 3 4 4 4 5 8 8 10 9 9 8 10 14 17 18
38 37 32 27 24 26 32 32 32 32 26 24 27 36 34 28 26 25 19 15 10 7 10 10 6 3 3 3 0 1 3 6 5 6 8 8 9 9 9 9 12 14 15
34 34 35 31 28 23 21 23 22 22 24 24 27 35 54 29 29 23 16 16 11 9 10 12 12 5 5 5 2 1 4 6 6 7 8 8 8 9 10 11 12 12 12
33 33 32 31 26 20 19 19 21 24 23 23 27 29 28 26 8 12 15 16 9 13 15 11 9 7 8 7 5 3 2 5 6 7 7 8 8 11 12 13 14 14 16
34 32 31 30 29 26 23 24 26 24 25 24 22 22 15 17 18 7 16 9 9 15 11 9 12 7 8 6 4 3 4 4 4 5 5 7 11 12 12 12 15 16 19
36 35 33 29 28 28 28 27 25 23 21 19 20 13 11 10 9 11 11 8 11 15 16 10 9 9 7 7 5 4 5 5 5 4 5 7 10 12 14 15 16 18 19
36 35 33 32 29 27 25 26 26 25 21 17 13 11 12 10 10 12 12 10 12 12 9 10 12 11 10 9 8 8 7 6 6 4 6 9 13 15 16 17 18 19 20
34 34 32 32 29 27 25 23 22 23 22 19 16 12 9 7 8 12 14 15 14 13 13 12 12 11 10 9 9 9 9 8 7 6 9 11 14 15 17 19 20 18 20
33 33 32 33 30 28 26 26 23 21 20 17 13 10 9 6 6 11 14 10 10 12 13 12 12 12 10 8 9 9 9 7 8 10 11 15 16 17 20 20 18 18 21
27 31 32 32 30 29 27 25 23 22 20 17 16 14 12 10 7 7 10 11 12 13 12 12 12 12 12 10 10 7 8 10 10 10 14 14 17 18 19 18 19 19 20
31 34 32 32 31 29 25 24 23 22 22 20 18 15 12 11 11 10 10 11 12 12 12 12 12 13 13 12 11 11 12 12 12 13 13 17 20 19 18 20 18 19 17
33 36 34 32 30 26 23 23 22 22 21 18 17 14 10 10 11 10 10 12 12 11 10 11 11 10 9 8 9 10 9 13 17 14 17 15 15 18 16 17 17 18 18
35 36 36 34 31 26 24 22 24 21 21 21 18 14 11 11 11 11 11 11 10 10 9 9 9 9 8 8 9 9 12 12 17 16 12 12 15 17 16 17 17 17 17
35 37 38 35 30 28 25 24 25 22 20 21 18 15 13 12 12 13 12 10 9 10 9 9 10 10 9 8 8 11 9 16 16 11 13 14 15 15 16 16 16 16 16
39 38 37 35 30 25 25 28 25 22 20 23 22 17 12 12 11 11 10 9 8 8 9 8 8 9 9 7 6 7 7 9 12 12 9 13 14 14 13 15 16 14 13
40 39 38 34 29 27 27 24 23 23 24 23 19 15 15 14 12 10 8 7 7 7 6 6 6 7 4 3 4 6 8 13 7 8 9 9 9 9 13 14 14 13 13
39 39 37 32 26 20 22 28 26 26 15 12 15 23 17 14 8 6 6 6 4 6 5 5 5 4 6 8 7 6 7 6 5 4 6 8 9 10 12 12 12 13 14
Wind_Direction
177 177 176 175 175 178 183 185 176 166 162 158 151 144 141 122 27 7 2 3 1 357 347 342 336 338 348 356 358 355 355 354 4 342 345 352 351 359 356 350 350 359 15
177 179 182 179 176 180 185 187 178 174 166 166 155 151 150 144 54 18 358 345 350 354 355 344 335 334 343 353 0 6 10 16 15 29 2 2 356 353 352 350 348 353 9
220 183 187 188 186 189 191 189 186 184 177 171 168 168 165 161 147 119 90 64 29 357 350 347 344 339 337 346 356 3 7 13 18 34 26 1 353 344 345 345 346 349 357
195 196 197 202 199 201 207 200 196 193 191 186 184 184 185 175 171 150 93 39 12 2 345 334 335 340 343 360 1 4 8 11 22 35 22 8 353 347 344 339 340 343 348
202 205 213 217 236 259 242 248 236 213 207 205 204 203 208 207 202 212 306 345 355 1 8 332 318 327 339 354 350 357 2 4 17 24 19 6 359 355 351 347 344 345 353
227 219 237 257 237 234 260 268 261 248 235 230 225 229 234 230 220 228 251 286 344 11 37 11 321 321 330 345 339 353 359 5 10 10 359 2 3 0 359 357 356 356 352
254 245 267 272 254 233 233 251 251 247 254 240 237 234 235 245 226 230 235 275 311 358 23 11 325 317 325 328 337 344 344 347 6 3 9 2 356 360 10 9 13 13 10
301 285 279 264 250 247 241 243 250 249 242 242 246 246 246 245 220 219 232 256 262 287 10 4 307 310 313 322 332 342 344 348 356 357 7 18 11 22 11 8 8 5 4
308 302 285 274 264 262 251 262 264 257 250 241 237 237 238 244 223 218 218 230 245 246 249 213 300 301 304 321 336 336 340 351 4 10 11 10 8 19 17 9 356 351 347
314 308 302 283 272 266 266 270 267 261 262 261 258 252 240 242 231 224 232 244 260 265 275 277 273 186 165 134 348 349 349 5 9 357 355 353 359 4 12 2 355 347 344
312 306 305 297 285 278 274 273 277 279 286 285 291 291 270 255 237 224 226 244 234 237 261 273 277 250 196 175 215 330 325 339 350 359 358 351 348 350 354 356 353 350 349
320 315 307 301 294 291 282 280 279 284 293 288 291 281 279 276 270 228 216 238 247 246 247 266 272 238 194 190 210 228 322 332 339 345 348 348 344 343 343 346 346 351 352
320 319 317 307 305 297 288 285 284 287 286 284 292 292 290 281 285 267 240 254 261 257 253 254 246 221 188 191 189 190 295 310 319 326 337 345 352 350 345 343 341 343 339
316 318 318 313 304 300 295 292 292 292 298 298 302 308 284 293 297 232 240 244 248 174 215 259 176 209 194 196 196 227 283 295 292 311 328 339 338 340 341 340 336 336 333
310 310 312 311 309 303 295 293 290 294 296 300 293 291 283 260 228 191 212 218 195 174 176 181 190 202 217 206 216 245 271 285 281 290 312 324 329 333 332 332 331 329 328
307 309 308 306 305 304 303 298 299 299 297 296 297 284 278 248 200 194 193 196 190 184 202 206 203 214 215 228 225 250 266 261 264 271 296 312 318 324 326 326 323 323 326
301 305 306 302 304 300 299 300 298 299 303 297 290 279 257 243 217 205 193 186 193 198 216 218 223 225 237 250 239 247 244 242 262 272 296 307 313 318 322 323 324 325 325
295 298 303 300 301 299 295 294 296 297 298 300 302 289 279 250 230 192 190 200 218 216 226 232 238 239 237 247 265 252 241 250 267 287 299 304 310 315 316 320 321 322 322
294 294 299 301 299 296 293 293 294 295 297 296 301 299 294 286 262 214 206 225 227 217 229 237 250 243 243 250 270 261 263 269 276 285 297 301 309 314 314 318 321 322 325
290 288 294 298 298 294 295 295 293 292 291 294 290 282 286 279 263 259 239 230 240 237 235 245 253 251 245 246 256 268 280 277 281 289 293 301 306 313 313 317 319 325 324
290 286 291 298 299 295 292 292 296 294 289 288 282 279 249 248 251 238 230 250 257 252 241 245 254 246 245 251 255 259 255 282 290 291 297 304 307 314 312 316 319 323 323
287 287 290 295 298 293 288 289 290 293 287 283 281 272 248 248 246 249 242 251 255 250 244 251 242 235 239 249 252 259 277 276 293 300 305 309 314 315 316 316 317 322 324
287 287 287 292 296 292 288 287 289 288 281 279 273 275 260 242 246 257 261 256 251 249 250 250 257 250 248 243 246 274 251 285 298 307 309 314 318 318 319 318 321 322 324
283 285 288 290 293 291 289 289 289 285 281 278 270 264 254 250 254 255 261 265 258 258 252 243 235 230 226 237 235 196 240 287 307 304 299 312 318 322 324 325 325 326 332
280 281 281 287 291 288 288 290 293 287 285 274 263 253 253 257 252 260 260 265 267 263 255 243 229 197 217 230 224 234 211 213 280 305 315 314 318 323 328 329 330 332 333
278 276 279 283 287 286 284 286 298 298 283 279 250 240 240 238 241 245 266 282 279 276 261 221 211 226 277 283 276 216 219 255 269 252 313 319 318 322 327 330 330 332 332